Location: Tel Aviv
(32.0670°N, 34.7670°E)
Time: 12:33:29
(UTC+02:00)

ISS - Visible Passes

Search period start: 09 December 2019 00:00
Search period end: 19 December 2019 00:00
Orbit: 411 x 421 km, 51.6° (Epoch: 09 December)

Date Brightness Start Highest point End Pass type
(mag) Time Alt. Az. Time Alt. Az. Time Alt. Az.
09 Dec -1.7 17:09:06 10° N 17:10:46 13° NNE 17:12:26 10° ENE visible
09 Dec -1.1 18:44:28 10° NW 18:45:24 17° NW 18:45:24 17° NW visible
10 Dec -3.8 17:56:01 10° NW 17:59:21 63° NE 18:00:06 46° E visible
11 Dec -3.0 17:07:46 10° NNW 17:10:50 32° NE 17:13:54 10° ESE visible
11 Dec -1.0 18:45:07 10° W 18:47:22 17° SW 18:48:23 15° SSW visible
12 Dec -1.9 17:55:58 10° WNW 17:59:01 32° SW 18:02:04 10° SSE visible
13 Dec -3.4 17:07:16 10° NW 17:10:36 69° SW 17:13:55 10° SE visible
15 Dec -0.6 17:07:41 10° W 17:10:06 18° SW 17:12:30 10° S visible
